Time,TemperatureF,DewpointF,PressureIn,WindDirection,WindDirectionDegrees,WindSpeedMPH,WindSpeedGustMPH,Humidity,HourlyPrecipIn,Conditions,Clouds,dailyrainin,SoftwareType,DateUTC
2013-03-19 00:00:00,31.5,30.7,30.20,East,88,6.0,14.0,97,0.00,,,0.00,meteohub,2013-03-19 04:00:00,
2013-03-19 00:05:00,31.6,30.9,30.19,East,93,12.0,17.0,97,0.00,,,0.00,meteohub,2013-03-19 04:05:00,
2013-03-19 00:10:00,31.6,30.9,30.19,ENE,58,13.0,17.0,97,0.00,,,0.00,meteohub,2013-03-19 04:10:00,
2013-03-19 00:15:00,31.6,30.9,30.18,East,101,9.0,23.0,97,0.00,,,0.00,meteohub,2013-03-19 04:15:00,
2013-03-19 00:20:00,31.6,30.9,30.18,ESE,103,14.0,23.0,97,0.00,,,0.00,meteohub,2013-03-19 04:20:00,
2013-03-19 00:25:00,31.6,30.9,30.17,East,86,12.0,21.0,97,0.00,,,0.00,meteohub,2013-03-19 04:25:00,
2013-03-19 00:30:00,31.6,30.9,30.16,East,82,9.0,21.0,97,0.00,,,0.00,meteohub,2013-03-19 04:30:00,
2013-03-19 00:36:00,31.6,30.9,30.16,ENE,75,10.0,21.0,97,0.00,,,0.00,meteohub,2013-03-19 04:36:00,
2013-03-19 00:41:00,31.6,30.9,30.15,ESE,107,15.0,20.0,97,0.00,,,0.00,meteohub,2013-03-19 04:41:00,
2013-03-19 00:46:00,31.6,30.9,30.15,East,85,14.0,18.0,97,0.00,,,0.00,meteohub,2013-03-19 04:46:00,
2013-03-19 00:51:00,31.8,31.1,30.15,ENE,68,8.0,18.0,97,0.00,,,0.00,meteohub,2013-03-19 04:51:00,
2013-03-19 00:56:00,31.6,30.9,30.14,ESE,107,3.0,18.0,97,0.00,,,0.00,meteohub,2013-03-19 04:56:00,
2013-03-19 01:01:00,31.6,30.9,30.14,ESE,105,16.0,18.0,97,0.00,,,0.00,meteohub,2013-03-19 05:01:00,
2013-03-19 01:06:00,31.6,30.9,30.13,NNE,29,6.0,19.0,97,0.00,,,0.00,meteohub,2013-03-19 05:06:00,
2013-03-19 01:11:00,31.6,30.9,30.13,East,83,12.0,19.0,97,0.00,,,0.00,meteohub,2013-03-19 05:11:00,
2013-03-19 01:16:00,31.6,31.1,30.12,East,94,8.0,19.0,98,0.00,,,0.00,meteohub,2013-03-19 05:16:00,
2013-03-19 01:21:00,31.6,31.1,30.12,East,99,5.0,17.0,98,0.00,,,0.00,meteohub,2013-03-19 05:21:00,
2013-03-19 01:26:00,31.6,31.1,30.12,ESE,103,16.0,19.0,98,0.00,,,0.00,meteohub,2013-03-19 05:26:00,
2013-03-19 01:31:00,31.6,31.1,30.12,East,94,18.0,21.0,98,0.00,,,0.00,meteohub,2013-03-19 05:31:00,
2013-03-19 01:36:00,31.6,31.1,30.11,ESE,105,16.0,21.0,98,0.00,,,0.00,meteohub,2013-03-19 05:36:00,
2013-03-19 01:41:00,31.6,31.1,30.11,East,98,21.0,21.0,98,0.00,,,0.00,meteohub,2013-03-19 05:41:00,
2013-03-19 01:47:00,31.6,30.9,30.10,ESE,102,7.0,21.0,97,0.00,,,0.00,meteohub,2013-03-19 05:47:00,
2013-03-19 01:52:00,31.8,31.1,30.10,ESE,103,13.0,21.0,97,0.00,,,0.00,meteohub,2013-03-19 05:52:00,
2013-03-19 01:57:00,31.6,30.9,30.10,East,96,15.0,22.0,97,0.00,,,0.00,meteohub,2013-03-19 05:57:00,
2013-03-19 02:02:00,31.8,31.1,30.09,East,87,18.0,22.0,97,0.00,,,0.00,meteohub,2013-03-19 06:02:00,
2013-03-19 02:07:00,31.8,31.1,30.09,ESE,105,11.0,22.0,97,0.00,,,0.00,meteohub,2013-03-19 06:07:00,
2013-03-19 02:12:00,31.8,31.1,30.09,East,91,15.0,23.0,97,0.00,,,0.00,meteohub,2013-03-19 06:12:00,
2013-03-19 02:17:00,32.0,31.3,30.08,East,87,11.0,23.0,97,0.00,,,0.00,meteohub,2013-03-19 06:17:00,
2013-03-19 02:22:00,32.0,31.3,30.08,ESE,105,13.0,23.0,97,0.00,,,0.00,meteohub,2013-03-19 06:22:00,
2013-03-19 02:27:00,32.0,31.3,30.07,NE,53,9.0,22.0,97,0.00,,,0.00,meteohub,2013-03-19 06:27:00,
2013-03-19 02:32:00,32.2,31.5,30.07,ESE,119,9.0,22.0,97,0.00,,,0.00,meteohub,2013-03-19 06:32:00,
2013-03-19 02:37:00,32.4,31.6,30.06,ESE,105,16.0,19.0,97,0.00,,,0.00,meteohub,2013-03-19 06:37:00,
2013-03-19 02:42:00,32.4,31.6,30.06,ESE,110,20.0,22.0,97,0.00,,,0.00,meteohub,2013-03-19 06:42:00,
2013-03-19 02:47:00,32.5,31.5,30.05,ESE,121,10.0,23.0,96,0.00,,,0.00,meteohub,2013-03-19 06:47:00,
2013-03-19 02:52:00,32.7,31.6,30.05,East,89,15.0,23.0,96,0.00,,,0.00,meteohub,2013-03-19 06:52:00,
2013-03-19 02:57:00,32.7,31.6,30.05,ESE,106,14.0,23.0,96,0.00,,,0.00,meteohub,2013-03-19 06:57:00,
2013-03-19 03:02:00,32.7,31.5,30.05,East,84,17.0,23.0,95,0.00,,,0.00,meteohub,2013-03-19 07:02:00,
2013-03-19 03:07:00,32.9,31.6,30.05,East,101,14.0,24.0,95,0.00,,,0.00,meteohub,2013-03-19 07:07:00,
2013-03-19 03:12:00,32.9,31.6,30.04,ESE,107,7.0,31.0,95,0.00,,,0.00,meteohub,2013-03-19 07:12:00,
2013-03-19 03:17:00,33.1,31.8,30.04,ESE,113,9.0,31.0,95,0.00,,,0.00,meteohub,2013-03-19 07:17:00,
2013-03-19 03:22:00,33.1,31.5,30.04,ENE,77,13.0,31.0,94,0.00,,,0.00,meteohub,2013-03-19 07:22:00,
2013-03-19 03:27:00,33.1,31.5,30.03,East,85,11.0,27.0,94,0.00,,,0.00,meteohub,2013-03-19 07:27:00,
2013-03-19 03:32:00,33.1,31.8,30.03,ENE,70,9.0,27.0,95,0.00,,,0.00,meteohub,2013-03-19 07:32:00,
2013-03-19 03:37:00,33.1,31.8,30.02,SE,125,12.0,27.0,95,0.01,,,0.01,meteohub,2013-03-19 07:37:00,
2013-03-19 03:42:00,33.1,31.8,30.02,East,101,15.0,27.0,95,0.02,,,0.01,meteohub,2013-03-19 07:42:00,
2013-03-19 03:47:00,33.1,31.8,30.01,East,86,14.0,25.0,95,0.02,,,0.02,meteohub,2013-03-19 07:47:00,
2013-03-19 03:52:00,33.3,32.0,30.00,East,89,8.0,25.0,95,0.04,,,0.04,meteohub,2013-03-19 07:52:00,
2013-03-19 03:57:00,33.1,31.8,30.00,East,91,20.0,25.0,95,0.05,,,0.04,meteohub,2013-03-19 07:57:00,
2013-03-19 04:03:00,33.1,32.0,29.99,ENE,77,14.0,26.0,96,0.06,,,0.06,meteohub,2013-03-19 08:03:00,
2013-03-19 04:08:00,33.1,32.0,29.99,East,97,10.0,32.0,96,0.07,,,0.07,meteohub,2013-03-19 08:08:00,
2013-03-19 04:13:00,33.1,32.4,29.99,ENE,63,18.0,32.0,97,0.09,,,0.08,meteohub,2013-03-19 08:13:00,
2013-03-19 04:18:00,33.3,32.5,29.99,East,89,14.0,26.0,97,0.10,,,0.10,meteohub,2013-03-19 08:18:00,
2013-03-19 04:23:00,33.3,32.5,29.99,East,98,7.0,25.0,97,0.11,,,0.11,meteohub,2013-03-19 08:23:00,
2013-03-19 04:28:00,33.3,32.5,29.99,ENE,77,14.0,25.0,97,0.12,,,0.12,meteohub,2013-03-19 08:28:00,
2013-03-19 04:33:00,33.3,32.5,29.99,East,87,12.0,21.0,97,0.13,,,0.13,meteohub,2013-03-19 08:33:00,
2013-03-19 04:38:00,33.3,32.5,29.99,East,101,14.0,21.0,97,0.14,,,0.15,meteohub,2013-03-19 08:38:00,
2013-03-19 04:43:00,33.4,32.7,29.99,ESE,105,10.0,23.0,97,0.14,,,0.16,meteohub,2013-03-19 08:43:00,
2013-03-19 04:48:00,33.4,32.9,29.99,ENE,77,14.0,23.0,98,0.14,,,0.17,meteohub,2013-03-19 08:48:00,
2013-03-19 04:53:00,33.4,32.9,29.99,East,95,20.0,24.0,98,0.14,,,0.18,meteohub,2013-03-19 08:53:00,
2013-03-19 04:58:00,33.6,33.1,29.99,East,96,12.0,24.0,98,0.14,,,0.18,meteohub,2013-03-19 08:58:00,
2013-03-19 05:03:00,33.6,33.1,29.98,East,101,6.0,24.0,98,0.14,,,0.20,meteohub,2013-03-19 09:03:00,
2013-03-19 05:08:00,33.6,33.1,29.98,ENE,63,8.0,24.0,98,0.13,,,0.21,meteohub,2013-03-19 09:08:00,
2013-03-19 05:13:00,33.8,33.3,29.99,East,84,10.0,20.0,98,0.14,,,0.22,meteohub,2013-03-19 09:13:00,
2013-03-19 05:18:00,33.8,33.3,29.98,ENE,67,6.0,20.0,98,0.14,,,0.24,meteohub,2013-03-19 09:18:00,
2013-03-19 05:23:00,33.8,33.3,29.98,ENE,60,12.0,20.0,98,0.13,,,0.25,meteohub,2013-03-19 09:23:00,
2013-03-19 05:28:00,33.8,33.3,29.98,ESE,105,9.0,17.0,98,0.13,,,0.26,meteohub,2013-03-19 09:28:00,
2013-03-19 05:33:00,34.0,33.4,29.97,East,92,17.0,21.0,98,0.14,,,0.27,meteohub,2013-03-19 09:33:00,
2013-03-19 05:38:00,34.0,33.4,29.97,ENE,69,9.0,24.0,98,0.13,,,0.28,meteohub,2013-03-19 09:38:00,
2013-03-19 05:44:00,34.0,33.4,29.97,ENE,57,17.0,24.0,98,0.13,,,0.29,meteohub,2013-03-19 09:44:00,
2013-03-19 05:49:00,34.0,33.4,29.97,ENE,76,15.0,26.0,98,0.14,,,0.30,meteohub,2013-03-19 09:49:00,
2013-03-19 05:54:00,34.0,33.4,29.97,NE,39,4.0,26.0,98,0.14,,,0.32,meteohub,2013-03-19 09:54:00,
2013-03-19 05:59:00,34.0,33.4,29.96,ENE,69,24.0,24.0,98,0.14,,,0.32,meteohub,2013-03-19 09:59:00,
2013-03-19 06:04:00,34.0,33.4,29.96,East,96,9.0,24.0,98,0.14,,,0.34,meteohub,2013-03-19 10:04:00,
2013-03-19 06:09:00,34.0,33.4,29.96,East,85,10.0,24.0,98,0.14,,,0.34,meteohub,2013-03-19 10:09:00,
2013-03-19 06:14:00,34.0,33.4,29.96,ENE,75,6.0,24.0,98,0.14,,,0.36,meteohub,2013-03-19 10:14:00,
2013-03-19 06:19:00,34.2,33.6,29.95,NE,56,18.0,23.0,98,0.13,,,0.37,meteohub,2013-03-19 10:19:00,
2013-03-19 06:24:00,34.2,33.6,29.95,ENE,72,10.0,23.0,98,0.13,,,0.37,meteohub,2013-03-19 10:24:00,
2013-03-19 06:29:00,34.2,34.0,29.95,ESE,103,7.0,26.0,99,0.12,,,0.39,meteohub,2013-03-19 10:29:00,
2013-03-19 06:34:00,34.2,34.0,29.94,ENE,77,11.0,26.0,99,0.12,,,0.39,meteohub,2013-03-19 10:34:00,
2013-03-19 06:39:00,34.3,34.2,29.94,East,82,19.0,22.0,99,0.12,,,0.41,meteohub,2013-03-19 10:39:00,
2013-03-19 06:44:00,34.3,34.2,29.94,ENE,77,20.0,22.0,99,0.12,,,0.41,meteohub,2013-03-19 10:44:00,
2013-03-19 06:49:00,34.3,34.2,29.93,East,85,16.0,25.0,99,0.11,,,0.42,meteohub,2013-03-19 10:49:00,
2013-03-19 06:54:00,34.3,34.2,29.93,East,98,11.0,26.0,99,0.11,,,0.43,meteohub,2013-03-19 10:54:00,
2013-03-19 06:59:00,34.3,34.2,29.93,SSE,162,12.0,28.0,99,0.10,,,0.44,meteohub,2013-03-19 10:59:00,
2013-03-19 07:04:00,34.3,34.2,29.92,East,95,13.0,28.0,99,0.11,,,0.45,meteohub,2013-03-19 11:04:00,
2013-03-19 07:09:00,34.3,34.2,29.92,East,84,17.0,27.0,99,0.10,,,0.46,meteohub,2013-03-19 11:09:00,
2013-03-19 07:14:00,34.3,34.2,29.91,ENE,68,12.0,27.0,99,0.10,,,0.46,meteohub,2013-03-19 11:14:00,
2013-03-19 07:19:00,34.3,34.2,29.91,ENE,68,15.0,29.0,99,0.09,,,0.47,meteohub,2013-03-19 11:19:00,
2013-03-19 07:24:00,34.3,34.2,29.91,East,89,12.0,29.0,99,0.09,,,0.48,meteohub,2013-03-19 11:24:00,
2013-03-19 07:29:00,34.3,34.2,29.91,East,101,4.0,29.0,99,0.09,,,0.48,meteohub,2013-03-19 11:29:00,
2013-03-19 07:34:00,34.5,34.3,29.90,East,84,10.0,29.0,99,0.09,,,0.49,meteohub,2013-03-19 11:34:00,
2013-03-19 07:39:00,34.5,34.3,29.90,East,83,22.0,29.0,99,0.09,,,0.50,meteohub,2013-03-19 11:39:00,
2013-03-19 07:44:00,34.5,34.3,29.90,ENE,65,20.0,26.0,99,0.09,,,0.51,meteohub,2013-03-19 11:44:00,
2013-03-19 07:49:00,34.5,34.3,29.89,ENE,58,19.0,24.0,99,0.10,,,0.52,meteohub,2013-03-19 11:49:00,
2013-03-19 07:54:00,34.5,34.3,29.89,ENE,61,15.0,28.0,99,0.10,,,0.53,meteohub,2013-03-19 11:54:00,
2013-03-19 07:59:00,34.5,34.3,29.89,East,97,19.0,28.0,99,0.09,,,0.53,meteohub,2013-03-19 11:59:00,
2013-03-19 08:04:00,34.5,34.3,29.89,East,82,20.0,26.0,99,0.08,,,0.54,meteohub,2013-03-19 12:04:00,
2013-03-19 08:09:00,34.7,34.5,29.88,NE,53,10.0,25.0,99,0.09,,,0.55,meteohub,2013-03-19 12:09:00,
2013-03-19 08:14:00,34.9,34.7,29.88,NE,45,11.0,25.0,99,0.08,,,0.55,meteohub,2013-03-19 12:14:00,
2013-03-19 08:20:00,34.9,34.7,29.87,ENE,63,24.0,25.0,99,0.08,,,0.55,meteohub,2013-03-19 12:20:00,
2013-03-19 08:25:00,34.9,34.7,29.87,NE,39,10.0,26.0,99,0.08,,,0.56,meteohub,2013-03-19 12:25:00,
2013-03-19 08:29:00,34.9,34.7,29.86,NE,44,21.0,26.0,99,0.08,,,0.56,meteohub,2013-03-19 12:29:00,
2013-03-19 08:35:00,34.9,34.7,29.86,ENE,71,19.0,26.0,99,0.08,,,0.57,meteohub,2013-03-19 12:35:00,
2013-03-19 08:40:00,34.9,34.7,29.86,East,99,22.0,28.0,99,0.07,,,0.57,meteohub,2013-03-19 12:40:00,
2013-03-19 08:45:00,35.1,34.9,29.86,ENE,76,20.0,28.0,99,0.07,,,0.58,meteohub,2013-03-19 12:45:00,
2013-03-19 08:50:00,35.1,34.9,29.86,East,101,10.0,28.0,99,0.07,,,0.59,meteohub,2013-03-19 12:50:00,
2013-03-19 08:55:00,35.1,34.9,29.85,NE,56,16.0,28.0,99,0.06,,,0.59,meteohub,2013-03-19 12:55:00,
2013-03-19 09:00:00,35.1,34.9,29.85,East,83,10.0,28.0,99,0.06,,,0.60,meteohub,2013-03-19 13:00:00,
2013-03-19 09:05:00,35.2,35.1,29.85,NE,49,16.0,23.0,99,0.06,,,0.61,meteohub,2013-03-19 13:05:00,
2013-03-19 09:10:00,35.2,35.1,29.85,ENE,72,14.0,23.0,99,0.07,,,0.62,meteohub,2013-03-19 13:10:00,
2013-03-19 09:15:00,35.4,35.2,29.85,ENE,63,6.0,23.0,99,0.08,,,0.63,meteohub,2013-03-19 13:15:00,
2013-03-19 09:20:00,35.4,35.2,29.84,ENE,59,16.0,22.0,99,0.10,,,0.65,meteohub,2013-03-19 13:20:00,
2013-03-19 09:25:00,35.6,35.4,29.84,NE,47,15.0,22.0,99,0.11,,,0.68,meteohub,2013-03-19 13:25:00,
2013-03-19 09:30:00,35.8,35.6,29.83,NE,49,7.0,25.0,99,0.12,,,0.68,meteohub,2013-03-19 13:30:00,
2013-03-19 09:35:00,35.8,35.6,29.82,NE,51,14.0,25.0,99,0.12,,,0.70,meteohub,2013-03-19 13:35:00,
2013-03-19 09:40:00,35.8,35.6,29.82,SE,129,7.0,25.0,99,0.14,,,0.72,meteohub,2013-03-19 13:40:00,
2013-03-19 09:45:00,36.0,35.8,29.81,ESE,103,11.0,20.0,99,0.14,,,0.73,meteohub,2013-03-19 13:45:00,
2013-03-19 09:50:00,36.0,35.8,29.81,ENE,65,11.0,22.0,99,0.14,,,0.74,meteohub,2013-03-19 13:50:00,
2013-03-19 09:55:00,36.1,36.0,29.80,ENE,75,12.0,25.0,99,0.15,,,0.75,meteohub,2013-03-19 13:55:00,
2013-03-19 10:00:00,36.1,36.0,29.80,ENE,61,13.0,25.0,99,0.15,,,0.76,meteohub,2013-03-19 14:00:00,
2013-03-19 10:05:00,36.3,36.1,29.80,NE,46,13.0,25.0,99,0.15,,,0.76,meteohub,2013-03-19 14:05:00,
2013-03-19 10:10:00,36.3,36.1,29.80,NE,40,12.0,21.0,99,0.14,,,0.77,meteohub,2013-03-19 14:10:00,
2013-03-19 10:15:00,36.3,36.1,29.79,ENE,60,15.0,21.0,99,0.13,,,0.78,meteohub,2013-03-19 14:15:00,
2013-03-19 10:20:00,36.7,36.5,29.79,ENE,72,12.0,21.0,99,0.12,,,0.79,meteohub,2013-03-19 14:20:00,
2013-03-19 10:25:00,36.9,36.7,29.79,NE,39,9.0,23.0,99,0.12,,,0.80,meteohub,2013-03-19 14:25:00,
2013-03-19 10:30:00,36.9,36.7,29.78,ENE,65,11.0,23.0,99,0.12,,,0.81,meteohub,2013-03-19 14:30:00,
2013-03-19 10:35:00,36.9,36.7,29.78,East,82,22.0,23.0,99,0.11,,,0.82,meteohub,2013-03-19 14:35:00,
2013-03-19 10:40:00,37.0,36.9,29.77,East,101,9.0,24.0,99,0.10,,,0.82,meteohub,2013-03-19 14:40:00,
2013-03-19 10:45:00,37.0,36.9,29.77,NE,56,7.0,24.0,99,0.10,,,0.83,meteohub,2013-03-19 14:45:00,
2013-03-19 10:50:00,37.2,37.0,29.77,ENE,75,14.0,22.0,99,0.09,,,0.83,meteohub,2013-03-19 14:50:00,
2013-03-19 10:55:00,37.2,37.0,29.77,ENE,68,18.0,22.0,99,0.08,,,0.83,meteohub,2013-03-19 14:55:00,
2013-03-19 11:00:00,37.4,37.2,29.76,ENE,66,15.0,21.0,99,0.08,,,0.84,meteohub,2013-03-19 15:00:00,
2013-03-19 11:05:00,37.4,37.2,29.76,ENE,65,8.0,20.0,99,0.07,,,0.84,meteohub,2013-03-19 15:05:00,
2013-03-19 11:10:00,37.4,37.2,29.76,ENE,65,11.0,22.0,99,0.08,,,0.86,meteohub,2013-03-19 15:10:00,
2013-03-19 11:15:00,37.6,37.4,29.75,ENE,61,11.0,22.0,99,0.08,,,0.86,meteohub,2013-03-19 15:15:00,
2013-03-19 11:20:00,37.6,37.4,29.75,NE,47,9.0,25.0,99,0.07,,,0.86,meteohub,2013-03-19 15:20:00,
2013-03-19 11:26:00,37.6,37.4,29.75,NE,55,10.0,25.0,99,0.06,,,0.86,meteohub,2013-03-19 15:26:00,
2013-03-19 11:31:00,37.8,37.6,29.75,ENE,59,10.0,22.0,99,0.06,,,0.87,meteohub,2013-03-19 15:31:00,
2013-03-19 11:36:00,37.8,37.6,29.74,ENE,65,10.0,22.0,99,0.05,,,0.87,meteohub,2013-03-19 15:36:00,
2013-03-19 11:41:00,37.8,37.6,29.73,NE,51,11.0,22.0,99,0.05,,,0.88,meteohub,2013-03-19 15:41:00,
2013-03-19 11:46:00,37.9,37.8,29.73,ENE,67,6.0,20.0,99,0.06,,,0.89,meteohub,2013-03-19 15:46:00,
2013-03-19 11:51:00,37.9,37.8,29.72,ENE,63,10.0,19.0,99,0.07,,,0.90,meteohub,2013-03-19 15:51:00,
2013-03-19 11:56:00,37.9,37.8,29.73,NE,40,13.0,19.0,99,0.07,,,0.90,meteohub,2013-03-19 15:56:00,
2013-03-19 12:01:00,37.9,37.8,29.72,NE,56,13.0,19.0,99,0.06,,,0.90,meteohub,2013-03-19 16:01:00,
2013-03-19 12:06:00,38.1,37.9,29.72,NNE,32,4.0,18.0,99,0.05,,,0.90,meteohub,2013-03-19 16:06:00,
2013-03-19 12:11:00,38.1,37.9,29.72,ENE,59,8.0,18.0,99,0.04,,,0.90,meteohub,2013-03-19 16:11:00,
2013-03-19 12:16:00,38.1,37.9,29.72,ENE,58,4.0,18.0,99,0.04,,,0.90,meteohub,2013-03-19 16:16:00,
2013-03-19 12:21:00,38.1,37.9,29.71,NE,51,5.0,17.0,99,0.04,,,0.91,meteohub,2013-03-19 16:21:00,
2013-03-19 12:26:00,38.3,38.1,29.70,NE,56,8.0,16.0,99,0.06,,,0.92,meteohub,2013-03-19 16:26:00,
2013-03-19 12:31:00,38.3,38.1,29.70,NE,44,6.0,16.0,99,0.05,,,0.92,meteohub,2013-03-19 16:31:00,
2013-03-19 12:36:00,38.3,38.1,29.69,NE,54,7.0,17.0,99,0.04,,,0.92,meteohub,2013-03-19 16:36:00,
2013-03-19 12:41:00,38.5,38.3,29.68,NNW,348,12.0,17.0,99,0.04,,,0.93,meteohub,2013-03-19 16:41:00,
2013-03-19 12:46:00,38.5,38.3,29.68,NNE,17,9.0,18.0,99,0.04,,,0.93,meteohub,2013-03-19 16:46:00,
2013-03-19 12:52:00,38.7,38.5,29.68,NE,54,15.0,18.0,99,0.04,,,0.94,meteohub,2013-03-19 16:52:00,
2013-03-19 12:57:00,38.8,38.7,29.67,ENE,69,8.0,18.0,99,0.04,,,0.94,meteohub,2013-03-19 16:57:00,
2013-03-19 13:02:00,38.8,38.8,29.66,NE,51,9.0,19.0,100,0.04,,,0.94,meteohub,2013-03-19 17:02:00,
2013-03-19 13:07:00,38.8,38.8,29.65,NE,41,8.0,19.0,100,0.04,,,0.94,meteohub,2013-03-19 17:07:00,
2013-03-19 13:12:00,39.0,39.0,29.65,NE,41,8.0,21.0,100,0.04,,,0.94,meteohub,2013-03-19 17:12:00,
2013-03-19 13:17:00,39.2,39.2,29.65,NE,55,9.0,21.0,100,0.03,,,0.94,meteohub,2013-03-19 17:17:00,
2013-03-19 13:22:00,39.4,39.4,29.65,NE,51,8.0,16.0,100,0.03,,,0.94,meteohub,2013-03-19 17:22:00,
2013-03-19 13:27:00,39.4,39.4,29.65,ENE,59,10.0,15.0,100,0.02,,,0.94,meteohub,2013-03-19 17:27:00,
2013-03-19 13:32:00,39.4,39.4,29.65,NNE,23,5.0,15.0,100,0.02,,,0.94,meteohub,2013-03-19 17:32:00,
2013-03-19 13:37:00,39.4,39.4,29.64,ENE,70,5.0,15.0,100,0.01,,,0.94,meteohub,2013-03-19 17:37:00,
2013-03-19 13:42:00,39.4,39.4,29.63,NNE,31,4.0,14.0,100,0.01,,,0.94,meteohub,2013-03-19 17:42:00,
2013-03-19 13:47:00,39.4,39.4,29.62,NNE,13,11.0,16.0,100,0.01,,,0.94,meteohub,2013-03-19 17:47:00,
2013-03-19 13:52:00,39.6,39.6,29.62,NNE,32,7.0,16.0,100,0.00,,,0.94,meteohub,2013-03-19 17:52:00,
2013-03-19 13:57:00,39.6,39.6,29.62,NNE,16,6.0,16.0,100,0.00,,,0.94,meteohub,2013-03-19 17:57:00,
2013-03-19 14:02:00,39.7,39.7,29.62,NE,41,6.0,14.0,100,0.00,,,0.94,meteohub,2013-03-19 18:02:00,
2013-03-19 14:07:00,39.6,39.6,29.62,NNW,335,6.0,14.0,100,0.00,,,0.94,meteohub,2013-03-19 18:07:00,
2013-03-19 14:12:00,39.4,39.4,29.63,North,352,6.0,12.0,100,0.00,,,0.94,meteohub,2013-03-19 18:12:00,
2013-03-19 14:17:00,39.0,39.0,29.63,NNE,15,6.0,12.0,100,0.01,,,0.95,meteohub,2013-03-19 18:17:00,
2013-03-19 14:22:00,39.0,38.8,29.62,NNW,330,7.0,10.0,99,0.01,,,0.95,meteohub,2013-03-19 18:22:00,
2013-03-19 14:27:00,38.8,38.8,29.61,NNE,20,5.0,11.0,100,0.02,,,0.96,meteohub,2013-03-19 18:27:00,
2013-03-19 14:32:00,38.8,38.8,29.62,NW,316,6.0,11.0,100,0.02,,,0.96,meteohub,2013-03-19 18:32:00,
2013-03-19 14:37:00,38.8,38.7,29.65,WNW,298,10.0,11.0,99,0.03,,,0.97,meteohub,2013-03-19 18:37:00,
2013-03-19 14:42:00,38.7,38.7,29.64,NNW,332,9.0,15.0,100,0.03,,,0.97,meteohub,2013-03-19 18:42:00,
2013-03-19 14:47:00,38.5,38.3,29.63,NNW,339,9.0,15.0,99,0.03,,,0.97,meteohub,2013-03-19 18:47:00,
2013-03-19 14:52:00,38.5,38.3,29.62,NW,322,9.0,15.0,99,0.03,,,0.97,meteohub,2013-03-19 18:52:00,
2013-03-19 14:58:00,38.5,38.3,29.62,WNW,302,6.0,15.0,99,0.04,,,0.98,meteohub,2013-03-19 18:58:00,
2013-03-19 15:03:00,38.7,38.7,29.62,NW,324,4.0,15.0,100,0.04,,,0.98,meteohub,2013-03-19 19:03:00,
2013-03-19 15:08:00,38.5,38.5,29.62,NW,318,11.0,16.0,100,0.04,,,0.98,meteohub,2013-03-19 19:08:00,
2013-03-19 15:13:00,38.5,38.3,29.61,NW,324,4.0,19.0,99,0.04,,,0.98,meteohub,2013-03-19 19:13:00,
2013-03-19 15:18:00,38.5,38.5,29.60,WNW,300,13.0,19.0,100,0.03,,,0.98,meteohub,2013-03-19 19:18:00,
2013-03-19 15:23:00,38.7,38.7,29.60,North,4,8.0,20.0,100,0.03,,,0.98,meteohub,2013-03-19 19:23:00,
2013-03-19 15:28:00,38.7,38.5,29.58,NNE,29,14.0,20.0,99,0.02,,,0.98,meteohub,2013-03-19 19:28:00,
2013-03-19 15:33:00,38.5,38.3,29.58,NNE,29,18.0,22.0,99,0.01,,,0.98,meteohub,2013-03-19 19:33:00,
2013-03-19 15:38:00,38.5,38.3,29.58,NW,322,16.0,22.0,99,0.01,,,0.98,meteohub,2013-03-19 19:38:00,
2013-03-19 15:43:00,38.5,38.3,29.58,North,352,10.0,22.0,99,0.01,,,0.98,meteohub,2013-03-19 19:43:00,
2013-03-19 15:48:00,38.3,38.1,29.58,NNW,336,9.0,19.0,99,0.01,,,0.98,meteohub,2013-03-19 19:48:00,
2013-03-19 15:53:00,38.1,37.9,29.59,North,349,4.0,20.0,99,0.01,,,0.98,meteohub,2013-03-19 19:53:00,
2013-03-19 15:58:00,38.1,37.9,29.59,NNW,337,14.0,20.0,99,0.00,,,0.98,meteohub,2013-03-19 19:58:00,
2013-03-19 16:03:00,38.1,37.9,29.59,NNE,23,6.0,20.0,99,0.00,,,0.98,meteohub,2013-03-19 20:03:00,
2013-03-19 16:08:00,38.1,37.9,29.58,North,352,17.0,20.0,99,0.00,,,0.98,meteohub,2013-03-19 20:08:00,
2013-03-19 16:13:00,38.1,37.9,29.57,NNW,346,9.0,25.0,99,0.00,,,0.98,meteohub,2013-03-19 20:13:00,
2013-03-19 16:18:00,38.3,38.1,29.57,NNE,19,13.0,25.0,99,0.00,,,0.98,meteohub,2013-03-19 20:18:00,
2013-03-19 16:23:00,38.3,38.1,29.57,NNW,340,11.0,25.0,99,0.01,,,0.99,meteohub,2013-03-19 20:23:00,
2013-03-19 16:28:00,38.5,38.3,29.55,North,11,13.0,22.0,99,0.01,,,0.99,meteohub,2013-03-19 20:28:00,
2013-03-19 16:33:00,38.7,38.5,29.55,NE,37,14.0,25.0,99,0.01,,,0.99,meteohub,2013-03-19 20:33:00,
2013-03-19 16:38:00,38.8,38.7,29.55,NNE,15,12.0,25.0,99,0.01,,,0.99,meteohub,2013-03-19 20:38:00,
2013-03-19 16:43:00,39.0,38.8,29.56,NNW,339,6.0,25.0,99,0.01,,,0.99,meteohub,2013-03-19 20:43:00,
2013-03-19 16:48:00,38.8,38.7,29.57,NNW,328,12.0,22.0,99,0.01,,,0.99,meteohub,2013-03-19 20:48:00,
2013-03-19 16:53:00,38.8,38.7,29.58,NNW,340,9.0,20.0,99,0.01,,,0.99,meteohub,2013-03-19 20:53:00,
2013-03-19 16:58:00,38.7,38.5,29.58,NW,322,8.0,18.0,99,0.01,,,0.99,meteohub,2013-03-19 20:58:00,
2013-03-19 17:03:00,38.7,38.5,29.58,WNW,294,11.0,17.0,99,0.01,,,0.99,meteohub,2013-03-19 21:03:00,
2013-03-19 17:08:00,38.7,38.5,29.58,NNW,340,8.0,18.0,99,0.01,,,0.99,meteohub,2013-03-19 21:08:00,
2013-03-19 17:13:00,38.7,38.5,29.59,NW,318,13.0,18.0,99,0.01,,,0.99,meteohub,2013-03-19 21:13:00,
2013-03-19 17:19:00,38.7,38.5,29.59,North,359,8.0,18.0,99,0.01,,,0.99,meteohub,2013-03-19 21:19:00,
2013-03-19 17:23:00,38.5,38.3,29.60,NNW,337,7.0,17.0,99,0.00,,,0.99,meteohub,2013-03-19 21:23:00,
2013-03-19 17:29:00,38.5,38.3,29.60,NNW,345,10.0,16.0,99,0.00,,,0.99,meteohub,2013-03-19 21:29:00,
2013-03-19 17:34:00,38.5,38.3,29.60,NW,312,4.0,16.0,99,0.00,,,0.99,meteohub,2013-03-19 21:34:00,
2013-03-19 17:39:00,38.5,38.3,29.61,NNW,328,4.0,14.0,99,0.00,,,0.99,meteohub,2013-03-19 21:39:00,
2013-03-19 17:44:00,38.5,38.3,29.61,NW,321,9.0,14.0,99,0.00,,,0.99,meteohub,2013-03-19 21:44:00,
2013-03-19 17:49:00,38.3,38.1,29.60,NW,323,7.0,17.0,99,0.00,,,0.99,meteohub,2013-03-19 21:49:00,
2013-03-19 17:54:00,38.1,37.9,29.61,NW,316,7.0,17.0,99,0.00,,,0.99,meteohub,2013-03-19 21:54:00,
2013-03-19 17:59:00,38.1,37.9,29.62,NNW,330,7.0,17.0,99,0.00,,,0.99,meteohub,2013-03-19 21:59:00,
2013-03-19 18:04:00,38.1,37.9,29.62,WNW,298,10.0,14.0,99,0.00,,,0.99,meteohub,2013-03-19 22:04:00,
2013-03-19 18:09:00,37.9,37.8,29.62,NNW,337,7.0,17.0,99,0.00,,,0.99,meteohub,2013-03-19 22:09:00,
2013-03-19 18:14:00,37.9,37.8,29.62,NW,320,8.0,17.0,99,0.00,,,0.99,meteohub,2013-03-19 22:14:00,
2013-03-19 18:19:00,37.8,37.6,29.62,NW,319,14.0,17.0,99,0.00,,,0.99,meteohub,2013-03-19 22:19:00,
2013-03-19 18:24:00,37.6,37.0,29.63,NNW,342,7.0,15.0,98,0.00,,,0.99,meteohub,2013-03-19 22:24:00,
2013-03-19 18:29:00,37.4,36.9,29.63,WNW,300,4.0,16.0,98,0.00,,,0.99,meteohub,2013-03-19 22:29:00,
2013-03-19 18:34:00,37.2,36.7,29.63,NW,319,8.0,16.0,98,0.00,,,0.99,meteohub,2013-03-19 22:34:00,
2013-03-19 18:39:00,37.2,36.7,29.63,NW,318,8.0,16.0,98,0.00,,,0.99,meteohub,2013-03-19 22:39:00,
2013-03-19 18:44:00,37.2,36.5,29.64,NW,308,6.0,12.0,97,0.00,,,0.99,meteohub,2013-03-19 22:44:00,
2013-03-19 18:49:00,37.2,36.5,29.65,NNW,338,10.0,15.0,97,0.00,,,0.99,meteohub,2013-03-19 22:49:00,
2013-03-19 18:54:00,37.2,36.1,29.65,NW,316,9.0,15.0,96,0.00,,,0.99,meteohub,2013-03-19 22:54:00,
2013-03-19 18:59:00,37.2,36.1,29.65,NNW,328,6.0,14.0,96,0.00,,,0.99,meteohub,2013-03-19 22:59:00,
2013-03-19 19:04:00,37.2,36.1,29.64,NW,304,7.0,16.0,96,0.00,,,0.99,meteohub,2013-03-19 23:04:00,
2013-03-19 19:09:00,37.0,36.0,29.65,NW,321,5.0,16.0,96,0.00,,,0.99,meteohub,2013-03-19 23:09:00,
2013-03-19 19:14:00,36.9,35.8,29.65,NNW,335,6.0,10.0,96,0.00,,,0.99,meteohub,2013-03-19 23:14:00,
2013-03-19 19:19:00,36.9,35.6,29.65,NW,312,7.0,11.0,95,0.00,,,0.99,meteohub,2013-03-19 23:19:00,
2013-03-19 19:24:00,36.9,35.6,29.65,WNW,300,4.0,12.0,95,0.00,,,0.99,meteohub,2013-03-19 23:24:00,
2013-03-19 19:29:00,36.7,35.4,29.65,WNW,295,7.0,12.0,95,0.00,,,0.99,meteohub,2013-03-19 23:29:00,
2013-03-19 19:34:00,36.7,35.4,29.65,WNW,300,8.0,12.0,95,0.00,,,0.99,meteohub,2013-03-19 23:34:00,
2013-03-19 19:39:00,36.7,35.4,29.65,NNW,330,2.0,13.0,95,0.00,,,0.99,meteohub,2013-03-19 23:39:00,
2013-03-19 19:44:00,36.7,35.4,29.65,WNW,290,3.0,13.0,95,0.00,,,0.99,meteohub,2013-03-19 23:44:00,
2013-03-19 19:49:00,36.7,35.4,29.65,NW,318,5.0,13.0,95,0.00,,,0.99,meteohub,2013-03-19 23:49:00,
2013-03-19 19:54:00,36.7,35.4,29.66,NW,309,7.0,11.0,95,0.00,,,0.99,meteohub,2013-03-19 23:54:00,
2013-03-19 19:59:00,36.5,35.2,29.67,West,278,6.0,8.0,95,0.00,,,0.99,meteohub,2013-03-19 23:59:00,
2013-03-19 20:05:00,36.5,35.2,29.67,WNW,298,7.0,9.0,95,0.00,,,0.99,meteohub,2013-03-20 00:05:00,
2013-03-19 20:10:00,36.7,35.4,29.67,NW,309,9.0,12.0,95,0.00,,,0.99,meteohub,2013-03-20 00:10:00,
2013-03-19 20:15:00,36.5,35.2,29.67,WNW,302,9.0,12.0,95,0.00,,,0.99,meteohub,2013-03-20 00:15:00,
2013-03-19 20:20:00,36.5,35.2,29.68,WNW,302,5.0,12.0,95,0.00,,,0.99,meteohub,2013-03-20 00:20:00,
2013-03-19 20:25:00,36.5,35.2,29.69,West,281,7.0,11.0,95,0.00,,,0.99,meteohub,2013-03-20 00:25:00,
2013-03-19 20:30:00,36.5,35.2,29.69,WNW,295,7.0,15.0,95,0.00,,,0.99,meteohub,2013-03-20 00:30:00,
2013-03-19 20:35:00,36.3,34.7,29.69,WNW,298,9.0,15.0,94,0.00,,,0.99,meteohub,2013-03-20 00:35:00,
2013-03-19 20:40:00,36.3,34.7,29.69,NW,309,11.0,15.0,94,0.00,,,0.99,meteohub,2013-03-20 00:40:00,
2013-03-19 20:45:00,36.3,34.7,29.70,WNW,302,8.0,14.0,94,0.00,,,0.99,meteohub,2013-03-20 00:45:00,
2013-03-19 20:50:00,36.1,34.5,29.69,WNW,295,9.0,14.0,94,0.00,,,0.99,meteohub,2013-03-20 00:50:00,
2013-03-19 20:55:00,36.1,34.5,29.70,NW,311,12.0,15.0,94,0.00,,,0.99,meteohub,2013-03-20 00:55:00,
2013-03-19 21:00:00,36.0,34.3,29.70,WNW,286,8.0,16.0,94,0.00,,,0.99,meteohub,2013-03-20 01:00:00,
2013-03-19 21:05:00,36.0,34.3,29.70,WNW,295,10.0,16.0,94,0.00,,,0.99,meteohub,2013-03-20 01:05:00,
2013-03-19 21:10:00,35.8,34.2,29.70,WNW,298,8.0,16.0,94,0.00,,,0.99,meteohub,2013-03-20 01:10:00,
2013-03-19 21:15:00,35.4,33.8,29.70,WNW,293,8.0,14.0,94,0.00,,,0.99,meteohub,2013-03-20 01:15:00,
2013-03-19 21:20:00,35.2,33.6,29.69,NW,316,5.0,14.0,94,0.00,,,0.99,meteohub,2013-03-20 01:20:00,
2013-03-19 21:25:00,35.2,33.6,29.69,NW,308,6.0,15.0,94,0.00,,,0.99,meteohub,2013-03-20 01:25:00,
2013-03-19 21:30:00,35.1,33.4,29.69,NW,305,4.0,15.0,94,0.00,,,0.99,meteohub,2013-03-20 01:30:00,
2013-03-19 21:35:00,35.1,33.4,29.69,NW,310,10.0,15.0,94,0.00,,,0.99,meteohub,2013-03-20 01:35:00,
2013-03-19 21:40:00,34.9,33.3,29.70,NW,304,10.0,15.0,94,0.00,,,0.99,meteohub,2013-03-20 01:40:00,
2013-03-19 21:45:00,34.9,33.3,29.69,NW,315,13.0,15.0,94,0.00,,,0.99,meteohub,2013-03-20 01:45:00,
2013-03-19 21:50:00,34.7,33.1,29.70,NW,311,6.0,15.0,94,0.00,,,0.99,meteohub,2013-03-20 01:50:00,
2013-03-19 21:55:00,34.5,32.9,29.70,NW,311,8.0,14.0,94,0.00,,,0.99,meteohub,2013-03-20 01:55:00,
2013-03-19 22:00:00,34.5,32.9,29.70,NW,321,7.0,14.0,94,0.00,,,0.99,meteohub,2013-03-20 02:00:00,
2013-03-19 22:05:00,34.5,32.9,29.69,NW,321,6.0,13.0,94,0.00,,,0.99,meteohub,2013-03-20 02:05:00,
2013-03-19 22:10:00,34.5,32.9,29.69,NW,314,4.0,13.0,94,0.00,,,0.99,meteohub,2013-03-20 02:10:00,
2013-03-19 22:15:00,34.5,32.9,29.69,WNW,290,9.0,13.0,94,0.00,,,0.99,meteohub,2013-03-20 02:15:00,
2013-03-19 22:20:00,34.5,32.7,29.69,NW,311,8.0,16.0,93,0.00,,,0.99,meteohub,2013-03-20 02:20:00,
2013-03-19 22:25:00,34.3,32.5,29.69,NW,321,10.0,16.0,93,0.00,,,0.99,meteohub,2013-03-20 02:25:00,
2013-03-19 22:30:00,34.3,32.5,29.69,NW,311,6.0,16.0,93,0.00,,,0.99,meteohub,2013-03-20 02:30:00,
2013-03-19 22:35:00,34.2,32.5,29.70,NW,318,5.0,15.0,94,0.00,,,0.99,meteohub,2013-03-20 02:35:00,
2013-03-19 22:40:00,34.0,32.4,29.70,WNW,302,5.0,12.0,94,0.00,,,0.99,meteohub,2013-03-20 02:40:00,
2013-03-19 22:45:00,33.8,32.2,29.70,NNW,333,6.0,12.0,94,0.00,,,0.99,meteohub,2013-03-20 02:45:00,
2013-03-19 22:50:00,33.6,32.0,29.70,NNW,333,7.0,12.0,94,0.00,,,0.99,meteohub,2013-03-20 02:50:00,
2013-03-19 22:55:00,33.6,32.4,29.70,NW,316,4.0,9.0,95,0.00,,,0.99,meteohub,2013-03-20 02:55:00,
2013-03-19 23:00:00,33.6,32.4,29.70,WNW,294,10.0,11.0,95,0.00,,,0.99,meteohub,2013-03-20 03:00:00,
2013-03-19 23:05:00,33.6,32.4,29.70,NW,308,2.0,12.0,95,0.00,,,0.99,meteohub,2013-03-20 03:05:00,
2013-03-19 23:10:00,33.6,32.4,29.70,NW,312,11.0,12.0,95,0.00,,,0.99,meteohub,2013-03-20 03:10:00,
2013-03-19 23:15:00,33.6,32.4,29.70,WNW,300,4.0,12.0,95,0.00,,,0.99,meteohub,2013-03-20 03:15:00,
2013-03-19 23:20:00,33.6,32.0,29.71,NW,304,3.0,11.0,94,0.00,,,0.99,meteohub,2013-03-20 03:20:00,
2013-03-19 23:25:00,33.4,32.2,29.71,WNW,290,5.0,12.0,95,0.00,,,0.99,meteohub,2013-03-20 03:25:00,
2013-03-19 23:30:00,33.3,32.0,29.71,NW,312,3.0,12.0,95,0.00,,,0.99,meteohub,2013-03-20 03:30:00,
2013-03-19 23:35:00,33.1,31.8,29.71,WNW,302,4.0,12.0,95,0.00,,,0.99,meteohub,2013-03-20 03:35:00,
2013-03-19 23:40:00,33.1,31.8,29.71,NW,310,2.0,11.0,95,0.00,,,0.99,meteohub,2013-03-20 03:40:00,
2013-03-19 23:45:00,32.7,31.5,29.71,NW,314,2.0,7.0,95,0.00,,,0.99,meteohub,2013-03-20 03:45:00,
2013-03-19 23:50:00,32.7,31.5,29.71,WNW,288,3.0,7.0,95,0.00,,,0.99,meteohub,2013-03-20 03:50:00,
2013-03-19 23:55:00,32.7,31.5,29.72,WNW,291,3.0,7.0,95,0.00,,,0.99,meteohub,2013-03-20 03:55:00,